Time,TemperatureF,DewpointF,PressureIn,WindDirection,WindDirectionDegrees,WindSpeedMPH,WindSpeedGustMPH,Humidity,HourlyPrecipIn,Conditions,Clouds,dailyrainin,SoftwareType,DateUTC
2013-10-01 00:02:00,68.9,53.6,28.32,East,90,10.0,10.0,58,0.00,,,0.00,meteohub,2013-10-01 05:02:00,
2013-10-01 00:06:00,68.7,53.4,28.32,East,90,6.0,11.0,58,0.00,,,0.00,meteohub,2013-10-01 05:06:00,
2013-10-01 00:12:00,68.9,53.6,28.32,East,90,8.0,11.0,58,0.00,,,0.00,meteohub,2013-10-01 05:12:00,
2013-10-01 00:17:00,68.4,53.4,28.32,East,90,9.0,11.0,59,0.00,,,0.00,meteohub,2013-10-01 05:17:00,
2013-10-01 00:22:00,68.5,53.6,28.33,SE,135,1.0,11.0,59,0.00,,,0.00,meteohub,2013-10-01 05:22:00,
2013-10-01 00:27:00,68.2,53.8,28.32,East,90,8.0,10.0,60,0.00,,,0.00,meteohub,2013-10-01 05:27:00,
2013-10-01 00:32:00,68.4,54.0,28.32,East,90,1.0,10.0,60,0.00,,,0.00,meteohub,2013-10-01 05:32:00,
2013-10-01 00:37:00,68.0,53.6,28.32,SE,135,1.0,9.0,60,0.00,,,0.00,meteohub,2013-10-01 05:37:00,
2013-10-01 00:42:00,67.5,53.6,28.32,East,90,2.0,9.0,61,0.00,,,0.00,meteohub,2013-10-01 05:42:00,
2013-10-01 00:47:00,67.6,53.8,28.33,East,90,7.0,7.0,61,0.00,,,0.00,meteohub,2013-10-01 05:47:00,
2013-10-01 00:52:00,67.5,53.6,28.33,East,90,5.0,8.0,61,0.00,,,0.00,meteohub,2013-10-01 05:52:00,
2013-10-01 00:57:00,67.3,53.8,28.32,East,90,7.0,10.0,62,0.00,,,0.00,meteohub,2013-10-01 05:57:00,
2013-10-01 01:02:00,66.9,53.4,28.32,East,90,2.0,10.0,62,0.00,,,0.00,meteohub,2013-10-01 06:02:00,
2013-10-01 01:07:00,66.9,53.4,28.32,East,90,7.0,10.0,62,0.00,,,0.00,meteohub,2013-10-01 06:07:00,
2013-10-01 01:12:00,67.1,53.6,28.33,East,90,6.0,10.0,62,0.00,,,0.00,meteohub,2013-10-01 06:12:00,
2013-10-01 01:17:00,66.7,53.8,28.33,East,90,10.0,10.0,63,0.00,,,0.00,meteohub,2013-10-01 06:17:00,
2013-10-01 01:22:00,66.7,53.8,28.33,East,90,7.0,10.0,63,0.00,,,0.00,meteohub,2013-10-01 06:22:00,
2013-10-01 01:27:00,66.6,54.0,28.33,East,90,6.0,10.0,64,0.00,,,0.00,meteohub,2013-10-01 06:27:00,
2013-10-01 01:32:00,66.7,54.1,28.33,East,90,7.0,10.0,64,0.00,,,0.00,meteohub,2013-10-01 06:32:00,
2013-10-01 01:37:00,66.4,53.8,28.33,SE,135,9.0,11.0,64,0.00,,,0.00,meteohub,2013-10-01 06:37:00,
2013-10-01 01:43:00,66.4,53.8,28.33,NE,45,6.0,11.0,64,0.00,,,0.00,meteohub,2013-10-01 06:43:00,
2013-10-01 01:48:00,66.4,53.8,28.33,SE,135,8.0,11.0,64,0.00,,,0.00,meteohub,2013-10-01 06:48:00,
2013-10-01 01:53:00,66.4,54.3,28.33,East,90,9.0,9.0,65,0.00,,,0.00,meteohub,2013-10-01 06:53:00,
2013-10-01 01:58:00,66.0,54.0,28.32,East,90,6.0,9.0,65,0.00,,,0.00,meteohub,2013-10-01 06:58:00,
2013-10-01 02:03:00,66.0,54.0,28.33,SE,135,7.0,9.0,65,0.00,,,0.00,meteohub,2013-10-01 07:03:00,
2013-10-01 02:08:00,66.0,54.0,28.33,East,90,11.0,11.0,65,0.00,,,0.00,meteohub,2013-10-01 07:08:00,
2013-10-01 02:13:00,66.0,54.0,28.33,East,90,9.0,10.0,65,0.00,,,0.00,meteohub,2013-10-01 07:13:00,
2013-10-01 02:18:00,65.8,53.8,28.33,East,90,9.0,11.0,65,0.00,,,0.00,meteohub,2013-10-01 07:18:00,
2013-10-01 02:23:00,65.8,53.8,28.33,East,90,2.0,11.0,65,0.00,,,0.00,meteohub,2013-10-01 07:23:00,
2013-10-01 02:28:00,65.7,54.0,28.33,East,90,5.0,9.0,66,0.00,,,0.00,meteohub,2013-10-01 07:28:00,
2013-10-01 02:33:00,65.7,54.0,28.33,East,90,1.0,9.0,66,0.00,,,0.00,meteohub,2013-10-01 07:33:00,
2013-10-01 02:38:00,65.5,53.8,28.33,East,90,6.0,8.0,66,0.00,,,0.00,meteohub,2013-10-01 07:38:00,
2013-10-01 02:44:00,65.1,54.0,28.33,NW,315,1.0,8.0,67,0.00,,,0.00,meteohub,2013-10-01 07:44:00,
2013-10-01 02:49:00,64.4,53.6,28.33,East,90,2.0,8.0,68,0.00,,,0.00,meteohub,2013-10-01 07:49:00,
2013-10-01 02:54:00,64.2,53.8,28.33,East,90,2.0,8.0,69,0.00,,,0.00,meteohub,2013-10-01 07:54:00,
2013-10-01 02:59:00,64.0,54.1,28.33,East,90,1.0,8.0,70,0.00,,,0.00,meteohub,2013-10-01 07:59:00,
2013-10-01 03:04:00,63.7,53.8,28.32,SE,135,2.0,8.0,70,0.00,,,0.00,meteohub,2013-10-01 08:04:00,
2013-10-01 03:09:00,63.9,54.0,28.33,SE,135,1.0,2.0,70,0.00,,,0.00,meteohub,2013-10-01 08:09:00,
2013-10-01 03:14:00,63.5,54.0,28.33,East,90,8.0,8.0,71,0.00,,,0.00,meteohub,2013-10-01 08:14:00,
2013-10-01 03:19:00,63.7,54.1,28.32,East,90,2.0,8.0,71,0.00,,,0.00,meteohub,2013-10-01 08:19:00,
2013-10-01 03:24:00,63.5,54.0,28.32,East,90,1.0,8.0,71,0.00,,,0.00,meteohub,2013-10-01 08:24:00,
2013-10-01 03:29:00,63.5,54.3,28.32,East,90,1.0,8.0,72,0.00,,,0.00,meteohub,2013-10-01 08:29:00,
2013-10-01 03:34:00,63.5,54.3,28.32,SE,135,4.0,7.0,72,0.00,,,0.00,meteohub,2013-10-01 08:34:00,
2013-10-01 03:40:00,63.1,54.0,28.32,East,90,3.0,7.0,72,0.00,,,0.00,meteohub,2013-10-01 08:40:00,
2013-10-01 03:45:00,63.3,54.1,28.32,East,90,5.0,8.0,72,0.00,,,0.00,meteohub,2013-10-01 08:45:00,
2013-10-01 03:50:00,63.1,54.0,28.32,East,90,2.0,8.0,72,0.00,,,0.00,meteohub,2013-10-01 08:50:00,
2013-10-01 03:55:00,63.0,54.1,28.32,East,90,4.0,8.0,73,0.00,,,0.00,meteohub,2013-10-01 08:55:00,
2013-10-01 04:00:00,63.1,54.3,28.32,SE,135,7.0,8.0,73,0.00,,,0.00,meteohub,2013-10-01 09:00:00,
2013-10-01 04:05:00,63.0,54.1,28.32,NE,45,3.0,8.0,73,0.00,,,0.00,meteohub,2013-10-01 09:05:00,
2013-10-01 04:10:00,62.8,54.0,28.32,East,90,1.0,8.0,73,0.00,,,0.00,meteohub,2013-10-01 09:10:00,
2013-10-01 04:15:00,62.6,54.1,28.31,East,90,2.0,8.0,74,0.00,,,0.00,meteohub,2013-10-01 09:15:00,
2013-10-01 04:20:00,62.4,54.0,28.32,SE,135,1.0,8.0,74,0.00,,,0.00,meteohub,2013-10-01 09:20:00,
2013-10-01 04:25:00,62.2,54.1,28.32,East,90,1.0,8.0,75,0.00,,,0.00,meteohub,2013-10-01 09:25:00,
2013-10-01 04:31:00,62.1,54.0,28.31,North,0,1.0,2.0,75,0.00,,,0.00,meteohub,2013-10-01 09:31:00,
2013-10-01 04:36:00,62.1,54.3,28.31,East,90,5.0,5.0,76,0.00,,,0.00,meteohub,2013-10-01 09:36:00,
2013-10-01 04:41:00,62.1,54.3,28.31,SE,135,6.0,6.0,76,0.00,,,0.00,meteohub,2013-10-01 09:41:00,
2013-10-01 04:46:00,62.1,54.3,28.32,NE,45,2.0,6.0,76,0.00,,,0.00,meteohub,2013-10-01 09:46:00,
2013-10-01 04:51:00,62.1,54.7,28.32,NE,45,8.0,8.0,77,0.00,,,0.00,meteohub,2013-10-01 09:51:00,
2013-10-01 04:56:00,61.7,54.5,28.31,East,90,9.0,9.0,77,0.00,,,0.00,meteohub,2013-10-01 09:56:00,
2013-10-01 05:01:00,61.7,54.5,28.31,East,90,4.0,9.0,77,0.00,,,0.00,meteohub,2013-10-01 10:01:00,
2013-10-01 05:06:00,61.9,54.7,28.31,SE,135,4.0,10.0,77,0.00,,,0.00,meteohub,2013-10-01 10:06:00,
2013-10-01 05:11:00,61.9,54.7,28.31,SE,135,6.0,10.0,77,0.00,,,0.00,meteohub,2013-10-01 10:11:00,
2013-10-01 05:16:00,61.7,54.9,28.32,SE,135,4.0,11.0,78,0.00,,,0.00,meteohub,2013-10-01 10:16:00,
2013-10-01 05:21:00,61.7,54.9,28.32,SE,135,2.0,11.0,78,0.00,,,0.00,meteohub,2013-10-01 10:21:00,
2013-10-01 05:26:00,61.5,54.7,28.32,SE,135,1.0,11.0,78,0.00,,,0.00,meteohub,2013-10-01 10:26:00,
2013-10-01 05:31:00,61.7,54.9,28.32,East,90,5.0,8.0,78,0.00,,,0.00,meteohub,2013-10-01 10:31:00,
2013-10-01 05:36:00,61.5,54.7,28.32,East,90,5.0,8.0,78,0.00,,,0.00,meteohub,2013-10-01 10:36:00,
2013-10-01 05:41:00,61.5,54.9,28.32,East,90,2.0,10.0,79,0.00,,,0.00,meteohub,2013-10-01 10:41:00,
2013-10-01 05:46:00,61.5,54.9,28.32,NE,45,9.0,10.0,79,0.00,,,0.00,meteohub,2013-10-01 10:46:00,
2013-10-01 05:51:00,61.5,54.9,28.32,East,90,7.0,10.0,79,0.00,,,0.00,meteohub,2013-10-01 10:51:00,
2013-10-01 05:56:00,61.3,55.0,28.32,East,90,2.0,10.0,80,0.00,,,0.00,meteohub,2013-10-01 10:56:00,
2013-10-01 06:01:00,61.3,55.0,28.31,East,90,1.0,10.0,80,0.00,,,0.00,meteohub,2013-10-01 11:01:00,
2013-10-01 06:06:00,61.2,54.9,28.32,East,90,9.0,10.0,80,0.00,,,0.00,meteohub,2013-10-01 11:06:00,
2013-10-01 06:11:00,61.2,55.2,28.32,East,90,6.0,10.0,81,0.00,,,0.00,meteohub,2013-10-01 11:11:00,
2013-10-01 06:16:00,61.0,55.0,28.32,South,180,2.0,10.0,81,0.00,,,0.00,meteohub,2013-10-01 11:16:00,
2013-10-01 06:21:00,61.2,55.2,28.32,East,90,8.0,9.0,81,0.00,,,0.00,meteohub,2013-10-01 11:21:00,
2013-10-01 06:26:00,61.0,55.0,28.32,SE,135,8.0,11.0,81,0.00,,,0.00,meteohub,2013-10-01 11:26:00,
2013-10-01 06:31:00,61.2,55.2,28.33,NE,45,1.0,11.0,81,0.00,,,0.00,meteohub,2013-10-01 11:31:00,
2013-10-01 06:36:00,61.2,55.2,28.33,ESE,113,1.0,11.0,81,0.00,,,0.00,meteohub,2013-10-01 11:36:00,
2013-10-01 06:41:00,61.2,55.6,28.33,SE,135,8.0,10.0,82,0.00,,,0.00,meteohub,2013-10-01 11:41:00,
2013-10-01 06:46:00,60.8,55.2,28.33,NE,45,5.0,11.0,82,0.00,,,0.00,meteohub,2013-10-01 11:46:00,
2013-10-01 06:51:00,61.2,55.9,28.33,East,90,1.0,11.0,83,0.00,,,0.00,meteohub,2013-10-01 11:51:00,
2013-10-01 06:56:00,60.8,55.6,28.33,SW,225,7.0,11.0,83,0.00,,,0.00,meteohub,2013-10-01 11:56:00,
2013-10-01 07:01:00,60.8,55.6,28.34,SE,135,1.0,10.0,83,0.00,,,0.00,meteohub,2013-10-01 12:01:00,
2013-10-01 07:07:00,60.8,55.6,28.34,East,90,1.0,10.0,83,0.00,,,0.00,meteohub,2013-10-01 12:07:00,
2013-10-01 07:12:00,60.6,55.8,28.34,SE,135,6.0,10.0,84,0.00,,,0.00,meteohub,2013-10-01 12:12:00,
2013-10-01 07:17:00,60.6,55.8,28.35,NE,45,1.0,6.0,84,0.00,,,0.00,meteohub,2013-10-01 12:17:00,
2013-10-01 07:22:00,60.4,55.6,28.35,East,90,1.0,10.0,84,0.00,,,0.00,meteohub,2013-10-01 12:22:00,
2013-10-01 07:27:00,60.4,55.9,28.35,ESE,113,7.0,10.0,85,0.00,,,0.00,meteohub,2013-10-01 12:27:00,
2013-10-01 07:32:00,60.6,56.1,28.35,SE,135,1.0,9.0,85,0.00,,,0.00,meteohub,2013-10-01 12:32:00,
2013-10-01 07:37:00,60.4,55.9,28.35,East,90,1.0,9.0,85,0.00,,,0.00,meteohub,2013-10-01 12:37:00,
2013-10-01 07:42:00,60.4,56.3,28.35,East,90,7.0,7.0,86,0.00,,,0.00,meteohub,2013-10-01 12:42:00,
2013-10-01 07:47:00,60.4,56.3,28.35,NE,45,2.0,9.0,86,0.00,,,0.00,meteohub,2013-10-01 12:47:00,
2013-10-01 07:52:00,60.4,56.5,28.35,East,90,3.0,9.0,87,0.00,,,0.00,meteohub,2013-10-01 12:52:00,
2013-10-01 07:57:00,60.6,56.7,28.36,SE,135,4.0,12.0,87,0.00,,,0.00,meteohub,2013-10-01 12:57:00,
2013-10-01 08:03:00,60.4,56.5,28.36,East,90,1.0,12.0,87,0.00,,,0.00,meteohub,2013-10-01 13:03:00,
2013-10-01 08:09:00,60.8,56.8,28.36,NE,45,1.0,12.0,87,0.00,,,0.00,meteohub,2013-10-01 13:09:00,
2013-10-01 08:14:00,61.0,57.0,28.36,East,90,1.0,10.0,87,0.00,,,0.00,meteohub,2013-10-01 13:14:00,
2013-10-01 08:19:00,61.2,57.0,28.36,East,90,8.0,10.0,86,0.00,,,0.00,meteohub,2013-10-01 13:19:00,
2013-10-01 08:24:00,61.7,57.4,28.36,WSW,248,6.0,10.0,86,0.00,,,0.00,meteohub,2013-10-01 13:24:00,
2013-10-01 08:29:00,61.9,57.6,28.36,NE,45,8.0,9.0,86,0.00,,,0.00,meteohub,2013-10-01 13:29:00,
2013-10-01 08:34:00,62.1,57.6,28.36,SE,135,5.0,9.0,85,0.00,,,0.00,meteohub,2013-10-01 13:34:00,
2013-10-01 08:39:00,62.2,57.7,28.37,East,90,8.0,9.0,85,0.00,,,0.00,meteohub,2013-10-01 13:39:00,
2013-10-01 08:44:00,63.0,58.5,28.37,East,90,5.0,9.0,85,0.00,,,0.00,meteohub,2013-10-01 13:44:00,
2013-10-01 08:50:00,63.7,58.5,28.37,East,90,12.0,12.0,83,0.00,,,0.00,meteohub,2013-10-01 13:50:00,
2013-10-01 08:55:00,64.4,58.8,28.37,East,90,5.0,12.0,82,0.00,,,0.00,meteohub,2013-10-01 13:55:00,
2013-10-01 09:00:00,65.1,58.8,28.37,East,90,8.0,12.0,80,0.00,,,0.00,meteohub,2013-10-01 14:00:00,
2013-10-01 09:05:00,65.8,59.2,28.37,SE,135,6.0,12.0,79,0.00,,,0.00,meteohub,2013-10-01 14:05:00,
2013-10-01 09:10:00,66.6,59.5,28.37,East,90,6.0,8.0,78,0.00,,,0.00,meteohub,2013-10-01 14:10:00,
2013-10-01 09:15:00,67.1,59.7,28.37,East,90,8.0,8.0,77,0.00,,,0.00,meteohub,2013-10-01 14:15:00,
2013-10-01 09:20:00,67.5,59.2,28.37,NE,45,6.0,10.0,75,0.00,,,0.00,meteohub,2013-10-01 14:20:00,
2013-10-01 09:25:00,68.4,60.1,28.38,East,90,8.0,10.0,75,0.00,,,0.00,meteohub,2013-10-01 14:25:00,
2013-10-01 09:30:00,69.1,60.1,28.38,East,90,10.0,10.0,73,0.00,,,0.00,meteohub,2013-10-01 14:30:00,
2013-10-01 09:35:00,69.4,59.5,28.38,East,90,11.0,11.0,71,0.00,,,0.00,meteohub,2013-10-01 14:35:00,
2013-10-01 09:40:00,70.2,60.3,28.38,NE,45,5.0,11.0,71,0.00,,,0.00,meteohub,2013-10-01 14:40:00,
2013-10-01 09:45:00,70.5,59.9,28.38,East,90,10.0,13.0,69,0.00,,,0.00,meteohub,2013-10-01 14:45:00,
2013-10-01 09:50:00,70.7,60.1,28.38,East,90,8.0,13.0,69,0.00,,,0.00,meteohub,2013-10-01 14:50:00,
2013-10-01 09:55:00,71.6,60.4,28.38,East,90,8.0,13.0,68,0.00,,,0.00,meteohub,2013-10-01 14:55:00,
2013-10-01 10:00:00,72.1,60.6,28.38,NE,45,7.0,13.0,67,0.00,,,0.00,meteohub,2013-10-01 15:00:00,
2013-10-01 10:06:00,72.5,60.1,28.39,East,90,12.0,13.0,65,0.00,,,0.00,meteohub,2013-10-01 15:06:00,
2013-10-01 10:11:00,72.9,60.8,28.38,East,90,10.0,12.0,66,0.00,,,0.00,meteohub,2013-10-01 15:11:00,
2013-10-01 10:16:00,73.0,60.1,28.39,East,90,12.0,12.0,64,0.00,,,0.00,meteohub,2013-10-01 15:16:00,
2013-10-01 10:21:00,73.6,60.6,28.39,East,90,8.0,12.0,64,0.00,,,0.00,meteohub,2013-10-01 15:21:00,
2013-10-01 10:26:00,73.9,61.0,28.39,East,90,7.0,13.0,64,0.00,,,0.00,meteohub,2013-10-01 15:26:00,
2013-10-01 10:31:00,74.5,61.0,28.39,SE,135,3.0,13.0,63,0.00,,,0.00,meteohub,2013-10-01 15:31:00,
2013-10-01 10:36:00,74.7,60.8,28.39,NE,45,10.0,13.0,62,0.00,,,0.00,meteohub,2013-10-01 15:36:00,
2013-10-01 10:41:00,75.0,61.2,28.38,East,90,10.0,15.0,62,0.00,,,0.00,meteohub,2013-10-01 15:41:00,
2013-10-01 10:46:00,75.0,61.2,28.38,East,90,10.0,15.0,62,0.00,,,0.00,meteohub,2013-10-01 15:46:00,
2013-10-01 10:51:00,75.9,61.9,28.39,SE,135,8.0,15.0,62,0.00,,,0.00,meteohub,2013-10-01 15:51:00,
2013-10-01 10:56:00,77.0,61.5,28.38,SE,135,9.0,13.0,59,0.00,,,0.00,meteohub,2013-10-01 15:56:00,
2013-10-01 11:01:00,77.5,62.6,28.39,SE,135,7.0,13.0,60,0.00,,,0.00,meteohub,2013-10-01 16:01:00,
2013-10-01 11:06:00,77.5,61.5,28.38,ENE,68,8.0,13.0,58,0.00,,,0.00,meteohub,2013-10-01 16:06:00,
2013-10-01 11:11:00,78.1,62.6,28.38,SE,135,1.0,13.0,59,0.00,,,0.00,meteohub,2013-10-01 16:11:00,
2013-10-01 11:17:00,78.3,62.8,28.38,East,90,6.0,13.0,59,0.00,,,0.00,meteohub,2013-10-01 16:17:00,
2013-10-01 11:22:00,78.1,62.6,28.38,East,90,8.0,13.0,59,0.00,,,0.00,meteohub,2013-10-01 16:22:00,
2013-10-01 11:27:00,79.2,63.1,28.38,East,90,2.0,13.0,58,0.00,,,0.00,meteohub,2013-10-01 16:27:00,
2013-10-01 11:32:00,79.5,62.4,28.38,East,90,8.0,13.0,56,0.00,,,0.00,meteohub,2013-10-01 16:32:00,
2013-10-01 11:37:00,79.3,62.8,28.38,SE,135,9.0,13.0,57,0.00,,,0.00,meteohub,2013-10-01 16:37:00,
2013-10-01 11:42:00,79.9,63.3,28.38,East,90,11.0,13.0,57,0.00,,,0.00,meteohub,2013-10-01 16:42:00,
2013-10-01 11:47:00,80.4,63.3,28.38,East,90,13.0,13.0,56,0.00,,,0.00,meteohub,2013-10-01 16:47:00,
2013-10-01 11:52:00,80.8,63.7,28.38,East,90,9.0,13.0,56,0.00,,,0.00,meteohub,2013-10-01 16:52:00,
2013-10-01 11:57:00,81.1,63.0,28.38,East,90,8.0,13.0,54,0.00,,,0.00,meteohub,2013-10-01 16:57:00,
2013-10-01 12:02:00,81.0,63.3,28.38,East,90,7.0,14.0,55,0.00,,,0.00,meteohub,2013-10-01 17:02:00,
2013-10-01 12:08:00,81.3,63.7,28.38,West,270,11.0,14.0,55,0.00,,,0.00,meteohub,2013-10-01 17:08:00,
2013-10-01 12:13:00,82.2,63.3,28.38,SE,135,9.0,14.0,53,0.00,,,0.00,meteohub,2013-10-01 17:13:00,
2013-10-01 12:18:00,82.8,63.9,28.38,SE,135,17.0,17.0,53,0.00,,,0.00,meteohub,2013-10-01 17:18:00,
2013-10-01 12:23:00,82.2,63.3,28.38,ESE,113,8.0,16.0,53,0.00,,,0.00,meteohub,2013-10-01 17:23:00,
2013-10-01 12:28:00,83.1,63.7,28.38,East,90,8.0,17.0,52,0.00,,,0.00,meteohub,2013-10-01 17:28:00,
2013-10-01 12:33:00,84.0,63.9,28.38,South,180,4.0,17.0,51,0.00,,,0.00,meteohub,2013-10-01 17:33:00,
2013-10-01 12:38:00,84.0,63.3,28.38,SE,135,2.0,13.0,50,0.00,,,0.00,meteohub,2013-10-01 17:38:00,
2013-10-01 12:43:00,84.4,63.7,28.38,SE,135,11.0,12.0,50,0.00,,,0.00,meteohub,2013-10-01 17:43:00,
2013-10-01 12:48:00,84.2,63.5,28.38,SE,135,5.0,12.0,50,0.00,,,0.00,meteohub,2013-10-01 17:48:00,
2013-10-01 12:53:00,84.9,64.8,28.38,ESE,113,8.0,12.0,51,0.00,,,0.00,meteohub,2013-10-01 17:53:00,
2013-10-01 12:58:00,84.6,63.3,28.37,South,180,11.0,12.0,49,0.00,,,0.00,meteohub,2013-10-01 17:58:00,
2013-10-01 13:03:00,84.9,64.2,28.37,SE,135,9.0,13.0,50,0.00,,,0.00,meteohub,2013-10-01 18:03:00,
2013-10-01 13:08:00,84.7,63.5,28.37,SE,135,10.0,13.0,49,0.00,,,0.00,meteohub,2013-10-01 18:08:00,
2013-10-01 13:13:00,85.5,63.5,28.37,SE,135,10.0,15.0,48,0.00,,,0.00,meteohub,2013-10-01 18:13:00,
2013-10-01 13:19:00,85.5,64.0,28.37,NW,315,11.0,15.0,49,0.00,,,0.00,meteohub,2013-10-01 18:19:00,
2013-10-01 13:24:00,85.5,63.5,28.36,East,90,15.0,15.0,48,0.00,,,0.00,meteohub,2013-10-01 18:24:00,
2013-10-01 13:29:00,85.6,64.2,28.37,East,90,9.0,15.0,49,0.00,,,0.00,meteohub,2013-10-01 18:29:00,
2013-10-01 13:34:00,86.2,64.2,28.37,South,180,9.0,15.0,48,0.00,,,0.00,meteohub,2013-10-01 18:34:00,
2013-10-01 13:39:00,86.5,64.6,28.36,South,180,5.0,15.0,48,0.00,,,0.00,meteohub,2013-10-01 18:39:00,
2013-10-01 13:44:00,86.7,64.0,28.36,NW,315,9.0,12.0,47,0.00,,,0.00,meteohub,2013-10-01 18:44:00,
2013-10-01 13:49:00,86.9,64.2,28.36,SE,135,11.0,12.0,47,0.00,,,0.00,meteohub,2013-10-01 18:49:00,
2013-10-01 13:54:00,86.9,64.2,28.36,NW,315,8.0,16.0,47,0.00,,,0.00,meteohub,2013-10-01 18:54:00,
2013-10-01 13:59:00,87.1,63.9,28.36,East,90,8.0,16.0,46,0.00,,,0.00,meteohub,2013-10-01 18:59:00,
2013-10-01 14:04:00,87.4,64.0,28.35,SE,135,13.0,16.0,46,0.00,,,0.00,meteohub,2013-10-01 19:04:00,
2013-10-01 14:09:00,87.6,64.2,28.35,East,90,11.0,16.0,46,0.00,,,0.00,meteohub,2013-10-01 19:09:00,
2013-10-01 14:14:00,88.2,64.8,28.35,SE,135,7.0,16.0,46,0.00,,,0.00,meteohub,2013-10-01 19:14:00,
2013-10-01 14:19:00,88.7,63.3,28.35,SE,135,15.0,15.0,43,0.00,,,0.00,meteohub,2013-10-01 19:19:00,
2013-10-01 14:24:00,88.5,63.9,28.35,East,90,12.0,13.0,44,0.00,,,0.00,meteohub,2013-10-01 19:24:00,
2013-10-01 14:29:00,88.7,64.0,28.35,East,90,10.0,15.0,44,0.00,,,0.00,meteohub,2013-10-01 19:29:00,
2013-10-01 14:35:00,89.1,64.2,28.34,SE,135,8.0,19.0,44,0.00,,,0.00,meteohub,2013-10-01 19:35:00,
2013-10-01 14:40:00,89.2,63.1,28.34,SE,135,9.0,19.0,42,0.00,,,0.00,meteohub,2013-10-01 19:40:00,
2013-10-01 14:45:00,89.4,62.6,28.34,SE,135,11.0,13.0,41,0.00,,,0.00,meteohub,2013-10-01 19:45:00,
2013-10-01 14:50:00,89.2,63.1,28.34,East,90,9.0,13.0,42,0.00,,,0.00,meteohub,2013-10-01 19:50:00,
2013-10-01 14:55:00,89.1,62.2,28.34,East,90,11.0,14.0,41,0.00,,,0.00,meteohub,2013-10-01 19:55:00,
2013-10-01 15:00:00,88.9,62.8,28.33,SE,135,14.0,14.0,42,0.00,,,0.00,meteohub,2013-10-01 20:00:00,
2013-10-01 15:05:00,89.4,61.2,28.34,East,90,8.0,17.0,39,0.00,,,0.00,meteohub,2013-10-01 20:05:00,
2013-10-01 15:10:00,90.0,61.7,28.34,East,90,9.0,17.0,39,0.00,,,0.00,meteohub,2013-10-01 20:10:00,
2013-10-01 15:15:00,90.5,62.2,28.33,East,90,9.0,15.0,39,0.00,,,0.00,meteohub,2013-10-01 20:15:00,
2013-10-01 15:20:00,90.7,60.8,28.32,SE,135,11.0,15.0,37,0.00,,,0.00,meteohub,2013-10-01 20:20:00,
2013-10-01 15:25:00,90.3,61.3,28.33,NE,45,7.0,15.0,38,0.00,,,0.00,meteohub,2013-10-01 20:25:00,
2013-10-01 15:30:00,91.2,61.3,28.32,East,90,11.0,15.0,37,0.00,,,0.00,meteohub,2013-10-01 20:30:00,
2013-10-01 15:35:00,90.7,59.2,28.32,SE,135,16.0,16.0,35,0.00,,,0.00,meteohub,2013-10-01 20:35:00,
2013-10-01 15:40:00,91.0,59.5,28.32,East,90,12.0,16.0,35,0.00,,,0.00,meteohub,2013-10-01 20:40:00,
2013-10-01 15:45:00,91.2,60.6,28.32,South,180,9.0,16.0,36,0.00,,,0.00,meteohub,2013-10-01 20:45:00,
2013-10-01 15:51:00,91.6,56.7,28.32,SE,135,15.0,16.0,31,0.00,,,0.00,meteohub,2013-10-01 20:51:00,
2013-10-01 15:56:00,91.8,57.7,28.33,SE,135,11.0,15.0,32,0.00,,,0.00,meteohub,2013-10-01 20:56:00,
2013-10-01 16:01:00,91.8,58.6,28.33,SE,135,13.0,15.0,33,0.00,,,0.00,meteohub,2013-10-01 21:01:00,
2013-10-01 16:07:00,91.6,57.6,28.32,South,180,12.0,15.0,32,0.00,,,0.00,meteohub,2013-10-01 21:07:00,
2013-10-01 16:12:00,91.4,58.3,28.32,SE,135,10.0,15.0,33,0.00,,,0.00,meteohub,2013-10-01 21:12:00,
2013-10-01 16:17:00,91.4,58.3,28.32,North,0,11.0,15.0,33,0.00,,,0.00,meteohub,2013-10-01 21:17:00,
2013-10-01 16:22:00,91.8,55.9,28.32,East,90,10.0,17.0,30,0.00,,,0.00,meteohub,2013-10-01 21:22:00,
2013-10-01 16:27:00,91.6,56.7,28.32,East,90,15.0,17.0,31,0.00,,,0.00,meteohub,2013-10-01 21:27:00,
2013-10-01 16:32:00,91.4,57.4,28.32,SE,135,11.0,17.0,32,0.00,,,0.00,meteohub,2013-10-01 21:32:00,
2013-10-01 16:37:00,91.9,57.0,28.32,NE,45,12.0,17.0,31,0.00,,,0.00,meteohub,2013-10-01 21:37:00,
2013-10-01 16:42:00,92.1,55.2,28.32,SE,135,10.0,15.0,29,0.00,,,0.00,meteohub,2013-10-01 21:42:00,
2013-10-01 16:47:00,91.9,57.0,28.32,North,0,15.0,15.0,31,0.00,,,0.00,meteohub,2013-10-01 21:47:00,
2013-10-01 16:52:00,91.8,55.9,28.32,South,180,11.0,15.0,30,0.00,,,0.00,meteohub,2013-10-01 21:52:00,
2013-10-01 16:57:00,91.8,57.7,28.32,East,90,11.0,15.0,32,0.00,,,0.00,meteohub,2013-10-01 21:57:00,
2013-10-01 17:02:00,91.9,57.0,28.32,ESE,113,15.0,15.0,31,0.00,,,0.00,meteohub,2013-10-01 22:02:00,
2013-10-01 17:07:00,91.4,54.7,28.32,SE,135,13.0,16.0,29,0.00,,,0.00,meteohub,2013-10-01 22:07:00,
2013-10-01 17:12:00,91.6,56.7,28.32,South,180,9.0,16.0,31,0.00,,,0.00,meteohub,2013-10-01 22:12:00,
2013-10-01 17:17:00,91.4,56.5,28.32,SE,135,14.0,16.0,31,0.00,,,0.00,meteohub,2013-10-01 22:17:00,
2013-10-01 17:22:00,91.4,58.3,28.32,East,90,11.0,14.0,33,0.00,,,0.00,meteohub,2013-10-01 22:22:00,
2013-10-01 17:27:00,91.4,59.0,28.32,SE,135,10.0,15.0,34,0.00,,,0.00,meteohub,2013-10-01 22:27:00,
2013-10-01 17:32:00,91.8,57.7,28.32,NE,45,9.0,15.0,32,0.00,,,0.00,meteohub,2013-10-01 22:32:00,
2013-10-01 17:37:00,90.9,57.7,28.32,NE,45,11.0,13.0,33,0.00,,,0.00,meteohub,2013-10-01 22:37:00,
2013-10-01 17:42:00,90.9,58.6,28.32,East,90,10.0,13.0,34,0.00,,,0.00,meteohub,2013-10-01 22:42:00,
2013-10-01 17:47:00,91.0,58.8,28.32,SE,135,6.0,13.0,34,0.00,,,0.00,meteohub,2013-10-01 22:47:00,
2013-10-01 17:52:00,90.7,58.5,28.32,NNE,23,6.0,12.0,34,0.00,,,0.00,meteohub,2013-10-01 22:52:00,
2013-10-01 17:57:00,90.3,58.1,28.32,SE,135,11.0,15.0,34,0.00,,,0.00,meteohub,2013-10-01 22:57:00,
2013-10-01 18:02:00,90.3,58.1,28.32,SE,135,15.0,15.0,34,0.00,,,0.00,meteohub,2013-10-01 23:02:00,
2013-10-01 18:07:00,90.1,58.8,28.32,East,90,8.0,15.0,35,0.00,,,0.00,meteohub,2013-10-01 23:07:00,
2013-10-01 18:13:00,90.1,58.8,28.32,SE,135,8.0,15.0,35,0.00,,,0.00,meteohub,2013-10-01 23:13:00,
2013-10-01 18:18:00,89.8,57.7,28.32,South,180,8.0,15.0,34,0.00,,,0.00,meteohub,2013-10-01 23:18:00,
2013-10-01 18:20:00,89.6,57.6,28.32,SE,135,12.0,15.0,34,0.00,,,0.00,meteohub,2013-10-01 23:20:00,
2013-10-01 18:25:00,89.6,57.6,28.32,East,90,14.0,15.0,34,0.00,,,0.00,meteohub,2013-10-01 23:25:00,
2013-10-01 18:30:00,89.1,57.9,28.33,SW,225,4.0,15.0,35,0.00,,,0.00,meteohub,2013-10-01 23:30:00,
2013-10-01 18:35:00,89.1,58.6,28.33,NE,45,10.0,14.0,36,0.00,,,0.00,meteohub,2013-10-01 23:35:00,
2013-10-01 18:40:00,88.9,58.5,28.33,East,90,7.0,14.0,36,0.00,,,0.00,meteohub,2013-10-01 23:40:00,
2013-10-01 18:45:00,88.5,58.1,28.33,SE,135,12.0,13.0,36,0.00,,,0.00,meteohub,2013-10-01 23:45:00,
2013-10-01 18:50:00,88.2,57.9,28.33,East,90,8.0,14.0,36,0.00,,,0.00,meteohub,2013-10-01 23:50:00,
2013-10-01 18:55:00,87.6,57.4,28.33,South,180,11.0,14.0,36,0.00,,,0.00,meteohub,2013-10-01 23:55:00,
2013-10-01 19:00:00,87.4,57.9,28.33,East,90,6.0,14.0,37,0.00,,,0.00,meteohub,2013-10-02 00:00:00,
2013-10-01 19:05:00,86.7,58.1,28.33,East,90,6.0,11.0,38,0.00,,,0.00,meteohub,2013-10-02 00:05:00,
2013-10-01 19:10:00,86.4,57.7,28.33,East,90,2.0,11.0,38,0.00,,,0.00,meteohub,2013-10-02 00:10:00,
2013-10-01 19:15:00,85.6,57.9,28.33,SE,135,8.0,11.0,39,0.00,,,0.00,meteohub,2013-10-02 00:15:00,
2013-10-01 19:18:00,85.5,57.7,28.33,NE,45,8.0,11.0,39,0.00,,,0.00,meteohub,2013-10-02 00:18:00,
2013-10-01 19:23:00,84.9,57.2,28.33,West,270,1.0,11.0,39,0.00,,,0.00,meteohub,2013-10-02 00:23:00,
2013-10-01 19:28:00,84.6,57.6,28.33,SE,135,8.0,11.0,40,0.00,,,0.00,meteohub,2013-10-02 00:28:00,
2013-10-01 19:33:00,84.4,57.4,28.33,East,90,2.0,12.0,40,0.00,,,0.00,meteohub,2013-10-02 00:33:00,
2013-10-01 19:38:00,83.8,57.6,28.33,SE,135,7.0,12.0,41,0.00,,,0.00,meteohub,2013-10-02 00:38:00,
2013-10-01 19:43:00,83.7,58.1,28.33,East,90,3.0,12.0,42,0.00,,,0.00,meteohub,2013-10-02 00:43:00,
2013-10-01 19:48:00,83.1,57.6,28.33,SE,135,7.0,11.0,42,0.00,,,0.00,meteohub,2013-10-02 00:48:00,
2013-10-01 19:53:00,82.8,57.9,28.35,East,90,8.0,10.0,43,0.00,,,0.00,meteohub,2013-10-02 00:53:00,
2013-10-01 19:58:00,82.6,57.7,28.35,NNE,23,8.0,10.0,43,0.00,,,0.00,meteohub,2013-10-02 00:58:00,
2013-10-01 20:03:00,82.2,58.1,28.35,East,90,8.0,10.0,44,0.00,,,0.00,meteohub,2013-10-02 01:03:00,
2013-10-01 20:08:00,82.0,57.9,28.35,East,90,10.0,12.0,44,0.00,,,0.00,meteohub,2013-10-02 01:08:00,
2013-10-01 20:13:00,81.7,58.3,28.35,SE,135,8.0,12.0,45,0.00,,,0.00,meteohub,2013-10-02 01:13:00,
2013-10-01 20:18:00,81.3,57.9,28.35,SE,135,8.0,12.0,45,0.00,,,0.00,meteohub,2013-10-02 01:18:00,
2013-10-01 20:23:00,81.0,58.3,28.35,East,90,1.0,11.0,46,0.00,,,0.00,meteohub,2013-10-02 01:23:00,
2013-10-01 20:28:00,80.8,58.1,28.35,East,90,8.0,10.0,46,0.00,,,0.00,meteohub,2013-10-02 01:28:00,
2013-10-01 20:33:00,80.4,58.3,28.35,East,90,7.0,11.0,47,0.00,,,0.00,meteohub,2013-10-02 01:33:00,
2013-10-01 20:38:00,80.1,58.1,28.36,SE,135,2.0,11.0,47,0.00,,,0.00,meteohub,2013-10-02 01:38:00,
2013-10-01 20:43:00,79.9,58.5,28.36,East,90,8.0,11.0,48,0.00,,,0.00,meteohub,2013-10-02 01:43:00,
2013-10-01 20:48:00,79.5,59.2,28.36,East,90,7.0,12.0,50,0.00,,,0.00,meteohub,2013-10-02 01:48:00,
2013-10-01 20:53:00,79.7,59.9,28.36,East,90,10.0,12.0,51,0.00,,,0.00,meteohub,2013-10-02 01:53:00,
2013-10-01 20:58:00,79.3,60.3,28.36,East,90,9.0,13.0,52,0.00,,,0.00,meteohub,2013-10-02 01:58:00,
2013-10-01 21:03:00,79.2,60.6,28.36,East,90,10.0,13.0,53,0.00,,,0.00,meteohub,2013-10-02 02:03:00,
2013-10-01 21:09:00,79.2,61.2,28.37,East,90,10.0,15.0,54,0.00,,,0.00,meteohub,2013-10-02 02:09:00,
2013-10-01 21:14:00,78.8,61.3,28.37,East,90,9.0,15.0,55,0.00,,,0.00,meteohub,2013-10-02 02:14:00,
2013-10-01 21:19:00,78.8,61.7,28.37,East,90,13.0,15.0,56,0.00,,,0.00,meteohub,2013-10-02 02:19:00,
2013-10-01 21:24:00,78.8,61.7,28.37,East,90,7.0,15.0,56,0.00,,,0.00,meteohub,2013-10-02 02:24:00,
2013-10-01 21:29:00,78.8,61.7,28.37,East,90,16.0,16.0,56,0.00,,,0.00,meteohub,2013-10-02 02:29:00,
2013-10-01 21:34:00,78.6,61.5,28.37,East,90,11.0,16.0,56,0.00,,,0.00,meteohub,2013-10-02 02:34:00,
2013-10-01 21:39:00,78.3,61.7,28.38,East,90,12.0,16.0,57,0.00,,,0.00,meteohub,2013-10-02 02:39:00,
2013-10-01 21:44:00,78.1,61.5,28.38,SE,135,12.0,16.0,57,0.00,,,0.00,meteohub,2013-10-02 02:44:00,
2013-10-01 21:49:00,77.9,61.5,28.38,East,90,8.0,13.0,57,0.00,,,0.00,meteohub,2013-10-02 02:49:00,
2013-10-01 21:54:00,77.7,61.3,28.38,SE,135,8.0,14.0,57,0.00,,,0.00,meteohub,2013-10-02 02:54:00,
2013-10-01 21:59:00,77.5,61.2,28.38,East,90,9.0,14.0,57,0.00,,,0.00,meteohub,2013-10-02 02:59:00,
2013-10-01 22:04:00,77.5,61.2,28.38,East,90,10.0,14.0,57,0.00,,,0.00,meteohub,2013-10-02 03:04:00,
2013-10-01 22:09:00,77.0,60.6,28.38,SE,135,15.0,15.0,57,0.00,,,0.00,meteohub,2013-10-02 03:09:00,
2013-10-01 22:14:00,77.4,61.0,28.38,East,90,9.0,15.0,57,0.00,,,0.00,meteohub,2013-10-02 03:14:00,
2013-10-01 22:19:00,77.2,60.8,28.38,East,90,8.0,15.0,57,0.00,,,0.00,meteohub,2013-10-02 03:19:00,
2013-10-01 22:24:00,77.0,60.6,28.39,East,90,9.0,15.0,57,0.00,,,0.00,meteohub,2013-10-02 03:24:00,
2013-10-01 22:29:00,76.8,60.4,28.39,East,90,11.0,15.0,57,0.00,,,0.00,meteohub,2013-10-02 03:29:00,
2013-10-01 22:34:00,76.5,60.1,28.39,SSW,203,11.0,15.0,57,0.00,,,0.00,meteohub,2013-10-02 03:34:00,
2013-10-01 22:39:00,76.1,59.7,28.39,East,90,7.0,15.0,57,0.00,,,0.00,meteohub,2013-10-02 03:39:00,
2013-10-01 22:44:00,75.9,60.1,28.40,East,90,8.0,13.0,58,0.00,,,0.00,meteohub,2013-10-02 03:44:00,
2013-10-01 22:49:00,75.7,59.9,28.40,East,90,8.0,12.0,58,0.00,,,0.00,meteohub,2013-10-02 03:49:00,
2013-10-01 22:54:00,75.4,60.1,28.40,SE,135,10.0,12.0,59,0.00,,,0.00,meteohub,2013-10-02 03:54:00,
2013-10-01 22:59:00,75.6,60.3,28.40,East,90,14.0,14.0,59,0.00,,,0.00,meteohub,2013-10-02 03:59:00,
2013-10-01 23:01:00,75.4,60.1,28.40,SE,135,8.0,14.0,59,0.00,,,0.00,meteohub,2013-10-02 04:01:00,
2013-10-01 23:06:00,75.2,59.9,28.40,SE,135,14.0,14.0,59,0.00,,,0.00,meteohub,2013-10-02 04:06:00,
2013-10-01 23:12:00,74.7,59.9,28.40,ESE,113,11.0,14.0,60,0.00,,,0.00,meteohub,2013-10-02 04:12:00,
2013-10-01 23:17:00,74.7,59.9,28.40,East,90,11.0,14.0,60,0.00,,,0.00,meteohub,2013-10-02 04:17:00,
2013-10-01 23:22:00,74.5,60.1,28.40,SE,135,9.0,14.0,61,0.00,,,0.00,meteohub,2013-10-02 04:22:00,
2013-10-01 23:27:00,74.3,59.9,28.40,East,90,10.0,11.0,61,0.00,,,0.00,meteohub,2013-10-02 04:27:00,
2013-10-01 23:32:00,74.1,59.7,28.40,SE,135,11.0,11.0,61,0.00,,,0.00,meteohub,2013-10-02 04:32:00,
2013-10-01 23:36:00,74.1,59.7,28.40,East,90,8.0,16.0,61,0.00,,,0.00,meteohub,2013-10-02 04:36:00,
2013-10-01 23:41:00,73.9,60.1,28.40,East,90,9.0,16.0,62,0.00,,,0.00,meteohub,2013-10-02 04:41:00,
2013-10-01 23:47:00,73.8,59.9,28.40,East,90,9.0,16.0,62,0.00,,,0.00,meteohub,2013-10-02 04:47:00,
2013-10-01 23:52:00,73.6,59.7,28.41,East,90,9.0,14.0,62,0.00,,,0.00,meteohub,2013-10-02 04:52:00,
2013-10-01 23:57:00,73.2,59.9,28.41,East,90,11.0,14.0,63,0.00,,,0.00,meteohub,2013-10-02 04:57:00,